|
|
Asteroid 2012 BU1
(Preview)
Orbital elements:
2012 BU1 Earth MOID = 0.0004 AU
Epoch 2012 Mar. 14.0 TT = JDT 2456000.5 MPC
M 45.28835 (2000.0) P Q
n 0.48195612 Peri. 133.22877 +0.37092464 -0.92863877
a 1.6111317 Node 294.99747 +0.84987322 +0.34235596
e 0.4415218 Incl. 0.42385 +0.37433998 +0.14290708
P 2.05 H 27.7 G 0...
|
Blobrana
|
0
|
|
|
|
|
Asteroid 2012 BV1
(Preview)
Orbital elements:
2012 BV1 Earth MOID = 0.0007 AU
Epoch 2012 Mar. 14.0 TT = JDT 2456000.5 MPC
M 2.49768 (2000.0) P Q
n 0.71699520 Peri. 248.54311 -0.99583289 +0.09041096
a 1.2363038 Node 296.64246 -0.07794136 -0.91176875
e 0.3161027 Incl. 0.76582 -0.04734981 -0.40062902
P 1.37 H 31.0 G 0....
|
Blobrana
|
0
|
|
|
|
|
Asteroid 2012 BN1
(Preview)
Orbital elements:
2012 BN1 Earth MOID = 0.0337 AU
Epoch 2012 Mar. 14.0 TT = JDT 2456000.5 MPC
M 209.52435 (2000.0) P Q
n 1.16191295 Peri. 24.22948 +0.77633579 +0.62628922
a 0.8960942 Node 296.80295 -0.59054291 +0.68322137
e 0.2029909 Incl. 4.57315 -0.22036743 +0.37546022
P 0.85 H 25.4 G 0...
|
Blobrana
|
0
|
|
|
|
|
Asteroid 2012 BT1
(Preview)
Orbital elements:
2012 BT1 Earth MOID = 0.0133 AU
Epoch 2012 Mar. 14.0 TT = JDT 2456000.5 MPC
M 234.36268 (2000.0) P Q
n 1.42027600 Peri. 193.70664 +0.65968893 +0.74856830
a 0.7838282 Node 117.61502 -0.68222817 +0.63373938
e 0.3053562 Incl. 4.32050 -0.31523840 +0.19498690
P 0.69 H 27.4 G...
|
Blobrana
|
0
|
|
|
|
|
Asteroid 2012 BY1
(Preview)
Orbital elements:
2012 BY1 Earth MOID = 0.0027 AU
Epoch 2012 Mar. 14.0 TT = JDT 2456000.5 MPC
M 1.71024 (2000.0) P Q
n 0.40058376 Peri. 230.76874 -0.95291659 +0.30320782
a 1.8225264 Node 326.88111 -0.27598192 -0.87249910
e 0.6052294 Incl. 0.40593 -0.12563417 -0.38315837
P 2.46 H 26.0 G 0....
|
Blobrana
|
0
|
|
|
|
|
Asteroid 2012 BS1
(Preview)
Orbital elements:
2012 BS1 Earth MOID = 0.0022 AU
Epoch 2012 Mar. 14.0 TT = JDT 2456000.5 MPC
M 6.27326 (2000.0) P Q
n 0.56968045 Peri. 56.72299 -0.99420512 -0.10623914
a 1.4411699 Node 117.17366 +0.09147250 -0.91626938
e 0.3838495 Incl. 1.05722 +0.05647095 -0.38621712
P 1.73 H 28.7 G 0.1...
|
Blobrana
|
0
|
|
|
|
|
Asteroid 2012 BZ1
(Preview)
Orbital elements:
2012 BZ1 Earth MOID = 0.0344 AU
Epoch 2012 Mar. 14.0 TT = JDT 2456000.5 MPC
M 359.63453 (2000.0) P Q
n 0.65922585 Peri. 107.87791 -0.51652899 +0.67433445
a 1.3075146 Node 118.89484 -0.81144114 -0.58227518
e 0.5929612 Incl. 37.06636 +0.27342472 -0.45412406
P 1.50 H 23.8...
|
Blobrana
|
0
|
|
|
|
|
Asteroid 2012 BP1
(Preview)
Orbital elements:
2012 BP1 Earth MOID = 0.1752 AU
Epoch 2012 Mar. 14.0 TT = JDT 2456000.5 MPC
M 32.59135 (2000.0) P Q
n 0.59306808 Peri. 0.16060 -0.44664538 -0.80292135
a 1.4030280 Node 116.38451 +0.82038927 -0.54358595
e 0.1742789 Incl. 26.14527 +0.35702850 +0.24460503
P 1.66 H 24.2 G 0....
|
Blobrana
|
0
|
|
|
|
|
Asteroid 2012 AW12
(Preview)
Orbital elements:
2012 AW12 Earth MOID = 0.0520 AU
Epoch 2011 Dec. 25.0 TT = JDT 2455920.5 MPC
M 20.48118 (2000.0) P Q
n 0.34606918 Peri. 253.30930 +0.58001607 -0.74182685
a 2.0092197 Node 151.30124 +0.69035950 +0.66695303
e 0.6622669 Incl. 44.49710 -0.43241776 +0.06976093
P 2.85 H 20.4...
|
Blobrana
|
0
|
|
|
|
|
Asteroid 2012 AC11
(Preview)
Orbital elements:
2012 AC11 Earth MOID = 0.2515 AU
Epoch 2012 Mar. 14.0 TT = JDT 2456000.5 MPC
M 21.80578 (2000.0) P Q
n 0.64178768 Peri. 191.25918 -0.68035412 -0.66680348
a 1.3310932 Node 302.48429 +0.69729947 -0.46122187
e 0.0728774 Incl. 21.13296 +0.22559195 -0.58536100
P 1.54 H 21.7...
|
Blobrana
|
0
|
|
|
|
|
Asteroid 2012 AQ10
(Preview)
Orbital elements:
2012 AQ10 Earth MOID = 0.0055 AU
Epoch 2012 Mar. 14.0 TT = JDT 2456000.5 MPC
M 17.47098 (2000.0) P Q
n 0.45646435 Peri. 207.49081 -0.75632909 -0.65183796
a 1.6705705 Node 291.71781 +0.61063394 -0.67302550
e 0.4235072 Incl. 3.42121 +0.23471792 -0.34949099
P 2.16 H 26.5 G...
|
Blobrana
|
2
|
|
|
|
|
Asteroid 2012 AW10
(Preview)
Orbital elements:
2012 AW10 Earth MOID = 0.0081 AU
Epoch 2012 Mar. 14.0 TT = JDT 2456000.5 MPC
M 56.35621 (2000.0) P Q
n 0.53204623 Peri. 300.13030 +0.60362956 -0.78842836
a 1.5083535 Node 112.26544 +0.76840518 +0.53574484
e 0.4350628 Incl. 7.34882 +0.21256723 +0.30225517
P 1.85 H 25.7 G...
|
Blobrana
|
1
|
|
|
|
|
Asteroid 2012 AT10
(Preview)
Orbital elements:
2012 AT10 Earth MOID = 0.3595 AU
Epoch 2012 Mar. 14.0 TT = JDT 2456000.5 MPC
M 334.81707 (2000.0) P Q
n 0.32483594 Peri. 261.43096 -0.88302485 +0.32964834
a 2.0958491 Node 297.22849 -0.11535774 -0.84240713
e 0.4595438 Incl. 22.06732 -0.45492824 -0.42624195
P 3.03 H 20....
|
Blobrana
|
0
|
|
|
|
|
Asteroid 2012 AO10
(Preview)
Orbital elements:
2012 AO10 Earth MOID = 0.0464 AU
Epoch 2012 Mar. 14.0 TT = JDT 2456000.5 MPC
M 70.38392 (2000.0) P Q
n 0.64486582 Peri. 112.29323 +0.55861301 -0.82484162
a 1.3268540 Node 303.45490 +0.71738060 +0.53319123
e 0.2918840 Incl. 5.99295 +0.41631308 +0.18799844
P 1.53 H 24.5 G...
|
Blobrana
|
0
|
|
|
|
|
Asteroid 2011 XO3
(Preview)
Orbital elements:
2011 XO3 Earth MOID = 0.1588 AU
Epoch 2012 Mar. 14.0 TT = JDT 2456000.5 MPC
M 353.07687 (2000.0) P Q
n 0.16870767 Peri. 209.84311 -0.96164044 -0.10654537
a 3.2437409 Node 321.36128 +0.25095416 -0.71380265
e 0.6600122 Incl. 23.88019 -0.11076852 -0.69219495
P 5.84 H 16.5...
|
Blobrana
|
0
|
|
|